Time,TemperatureF,DewpointF,PressureIn,WindDirection,WindDirectionDegrees,WindSpeedMPH,WindSpeedGustMPH,Humidity,HourlyPrecipIn,Conditions,Clouds,dailyrainin,SoftwareType,DateUTC
2013-09-08 00:01:00,61.7,59.9,29.59,North,-999,-999.0,-999.0,92,-99.99,,,-99.99,Homeseer,2013-09-08 04:01:00,
2013-09-08 00:03:00,61.7,59.9,29.59,North,-999,-999.0,-999.0,92,-99.99,,,-99.99,Homeseer,2013-09-08 04:03:00,
2013-09-08 00:04:00,61.8,60.0,29.59,North,-999,-999.0,-999.0,92,-99.99,,,-99.99,Homeseer,2013-09-08 04:04:00,
2013-09-08 00:09:00,61.8,60.0,29.60,North,-999,-999.0,-999.0,92,-99.99,,,-99.99,Homeseer,2013-09-08 04:09:00,
2013-09-08 00:14:00,61.8,60.0,29.59,North,-999,-999.0,-999.0,92,-99.99,,,-99.99,Homeseer,2013-09-08 04:14:00,
2013-09-08 00:19:00,61.8,60.0,29.59,North,-999,-999.0,-999.0,92,-99.99,,,-99.99,Homeseer,2013-09-08 04:19:00,
2013-09-08 00:20:00,61.8,60.0,29.60,North,-999,-999.0,-999.0,92,-99.99,,,-99.99,Homeseer,2013-09-08 04:20:00,
2013-09-08 00:25:00,61.8,60.0,29.59,North,-999,-999.0,-999.0,92,-99.99,,,-99.99,Homeseer,2013-09-08 04:25:00,
2013-09-08 00:26:00,61.8,60.0,29.59,North,-999,-999.0,-999.0,92,-99.99,,,-99.99,Homeseer,2013-09-08 04:26:00,
2013-09-08 00:31:00,61.8,59.8,29.59,North,-999,-999.0,-999.0,91,-99.99,,,-99.99,Homeseer,2013-09-08 04:31:00,
2013-09-08 00:36:00,61.8,60.0,29.59,North,-999,-999.0,-999.0,92,-99.99,,,-99.99,Homeseer,2013-09-08 04:36:00,
2013-09-08 00:41:00,61.8,60.0,29.59,North,-999,-999.0,-999.0,92,-99.99,,,-99.99,Homeseer,2013-09-08 04:41:00,
2013-09-08 00:46:00,61.8,60.0,29.59,North,-999,-999.0,-999.0,92,-99.99,,,-99.99,Homeseer,2013-09-08 04:46:00,
2013-09-08 00:51:00,61.8,60.0,29.59,North,-999,-999.0,-999.0,92,-99.99,,,-99.99,Homeseer,2013-09-08 04:51:00,
2013-09-08 00:56:00,61.8,60.2,29.58,North,-999,-999.0,-999.0,93,-99.99,,,-99.99,Homeseer,2013-09-08 04:56:00,
2013-09-08 01:01:00,62.0,60.2,29.58,North,-999,-999.0,-999.0,92,-99.99,,,-99.99,Homeseer,2013-09-08 05:01:00,
2013-09-08 01:06:00,61.8,60.0,29.58,North,-999,-999.0,-999.0,92,-99.99,,,-99.99,Homeseer,2013-09-08 05:06:00,
2013-09-08 01:11:00,62.0,60.0,29.58,North,-999,-999.0,-999.0,91,-99.99,,,-99.99,Homeseer,2013-09-08 05:11:00,
2013-09-08 01:16:00,62.0,60.0,29.58,North,-999,-999.0,-999.0,91,-99.99,,,-99.99,Homeseer,2013-09-08 05:16:00,
2013-09-08 01:21:00,62.0,60.0,29.59,North,-999,-999.0,-999.0,91,-99.99,,,-99.99,Homeseer,2013-09-08 05:21:00,
2013-09-08 01:26:00,61.8,59.8,29.58,North,-999,-999.0,-999.0,91,-99.99,,,-99.99,Homeseer,2013-09-08 05:26:00,
2013-09-08 01:31:00,61.8,60.0,29.57,North,-999,-999.0,-999.0,92,-99.99,,,-99.99,Homeseer,2013-09-08 05:31:00,
2013-09-08 01:36:00,61.8,59.8,29.58,North,-999,-999.0,-999.0,91,-99.99,,,-99.99,Homeseer,2013-09-08 05:36:00,
2013-09-08 01:41:00,61.7,59.7,29.57,North,-999,-999.0,-999.0,91,-99.99,,,-99.99,Homeseer,2013-09-08 05:41:00,
2013-09-08 01:46:00,61.8,59.8,29.57,North,-999,-999.0,-999.0,91,-99.99,,,-99.99,Homeseer,2013-09-08 05:46:00,
2013-09-08 01:51:00,62.0,60.0,29.57,North,-999,-999.0,-999.0,91,-99.99,,,-99.99,Homeseer,2013-09-08 05:51:00,
2013-09-08 01:56:00,62.0,60.0,29.57,North,-999,-999.0,-999.0,91,-99.99,,,-99.99,Homeseer,2013-09-08 05:56:00,
2013-09-08 02:01:00,62.0,60.0,29.57,North,-999,-999.0,-999.0,91,-99.99,,,-99.99,Homeseer,2013-09-08 06:01:00,
2013-09-08 02:06:00,62.1,60.1,29.56,North,-999,-999.0,-999.0,91,-99.99,,,-99.99,Homeseer,2013-09-08 06:06:00,
2013-09-08 02:11:00,62.2,60.2,29.56,North,-999,-999.0,-999.0,91,-99.99,,,-99.99,Homeseer,2013-09-08 06:11:00,
2013-09-08 02:16:00,62.1,60.1,29.56,North,-999,-999.0,-999.0,91,-99.99,,,-99.99,Homeseer,2013-09-08 06:16:00,
2013-09-08 02:21:00,62.0,60.0,29.56,North,-999,-999.0,-999.0,91,-99.99,,,-99.99,Homeseer,2013-09-08 06:21:00,
2013-09-08 02:26:00,61.8,59.8,29.55,North,-999,-999.0,-999.0,91,-99.99,,,-99.99,Homeseer,2013-09-08 06:26:00,
2013-09-08 02:31:00,61.7,59.7,29.56,North,-999,-999.0,-999.0,91,-99.99,,,-99.99,Homeseer,2013-09-08 06:31:00,
2013-09-08 02:36:00,61.8,59.8,29.56,North,-999,-999.0,-999.0,91,-99.99,,,-99.99,Homeseer,2013-09-08 06:36:00,
2013-09-08 02:41:00,61.7,59.7,29.55,North,-999,-999.0,-999.0,91,-99.99,,,-99.99,Homeseer,2013-09-08 06:41:00,
2013-09-08 02:46:00,61.7,59.7,29.55,North,-999,-999.0,-999.0,91,-99.99,,,-99.99,Homeseer,2013-09-08 06:46:00,
2013-09-08 02:51:00,61.4,59.6,29.54,North,-999,-999.0,-999.0,92,-99.99,,,-99.99,Homeseer,2013-09-08 06:51:00,
2013-09-08 02:56:00,61.3,59.5,29.53,North,-999,-999.0,-999.0,92,-99.99,,,-99.99,Homeseer,2013-09-08 06:56:00,
2013-09-08 03:01:00,61.1,59.3,29.53,North,-999,-999.0,-999.0,92,-99.99,,,-99.99,Homeseer,2013-09-08 07:01:00,
2013-09-08 03:06:00,61.0,59.4,29.53,North,-999,-999.0,-999.0,93,-99.99,,,-99.99,Homeseer,2013-09-08 07:06:00,
2013-09-08 03:11:00,60.7,59.4,29.51,North,-999,-999.0,-999.0,94,-99.99,,,-99.99,Homeseer,2013-09-08 07:11:00,
2013-09-08 03:16:00,60.7,59.4,29.51,North,-999,-999.0,-999.0,94,-99.99,,,-99.99,Homeseer,2013-09-08 07:16:00,
2013-09-08 03:21:00,60.6,59.3,29.51,North,-999,-999.0,-999.0,94,-99.99,,,-99.99,Homeseer,2013-09-08 07:21:00,
2013-09-08 03:26:00,60.6,59.3,29.51,North,-999,-999.0,-999.0,94,-99.99,,,-99.99,Homeseer,2013-09-08 07:26:00,
2013-09-08 03:31:00,60.6,59.3,29.51,North,-999,-999.0,-999.0,94,-99.99,,,-99.99,Homeseer,2013-09-08 07:31:00,
2013-09-08 03:36:00,60.4,59.3,29.51,North,-999,-999.0,-999.0,95,-99.99,,,-99.99,Homeseer,2013-09-08 07:36:00,
2013-09-08 03:41:00,60.5,59.2,29.51,North,-999,-999.0,-999.0,94,-99.99,,,-99.99,Homeseer,2013-09-08 07:41:00,
2013-09-08 03:46:00,60.5,59.4,29.51,North,-999,-999.0,-999.0,95,-99.99,,,-99.99,Homeseer,2013-09-08 07:46:00,
2013-09-08 03:51:00,60.5,59.2,29.51,North,-999,-999.0,-999.0,94,-99.99,,,-99.99,Homeseer,2013-09-08 07:51:00,
2013-09-08 03:56:00,60.6,59.3,29.50,North,-999,-999.0,-999.0,94,-99.99,,,-99.99,Homeseer,2013-09-08 07:56:00,
2013-09-08 04:01:00,60.6,59.3,29.51,North,-999,-999.0,-999.0,94,-99.99,,,-99.99,Homeseer,2013-09-08 08:01:00,
2013-09-08 04:06:00,60.4,59.3,29.50,North,-999,-999.0,-999.0,95,-99.99,,,-99.99,Homeseer,2013-09-08 08:06:00,
2013-09-08 04:11:00,60.6,59.3,29.51,North,-999,-999.0,-999.0,94,-99.99,,,-99.99,Homeseer,2013-09-08 08:11:00,
2013-09-08 04:16:00,60.5,59.4,29.50,North,-999,-999.0,-999.0,95,-99.99,,,-99.99,Homeseer,2013-09-08 08:16:00,
2013-09-08 04:21:00,60.5,59.4,29.50,North,-999,-999.0,-999.0,95,-99.99,,,-99.99,Homeseer,2013-09-08 08:21:00,
2013-09-08 04:26:00,60.5,59.4,29.49,North,-999,-999.0,-999.0,95,-99.99,,,-99.99,Homeseer,2013-09-08 08:26:00,
2013-09-08 04:31:00,60.5,59.2,29.49,North,-999,-999.0,-999.0,94,-99.99,,,-99.99,Homeseer,2013-09-08 08:31:00,
2013-09-08 04:36:00,60.5,59.4,29.49,North,-999,-999.0,-999.0,95,-99.99,,,-99.99,Homeseer,2013-09-08 08:36:00,
2013-09-08 04:41:00,60.4,59.1,29.49,North,-999,-999.0,-999.0,94,-99.99,,,-99.99,Homeseer,2013-09-08 08:41:00,
2013-09-08 04:46:00,60.3,59.2,29.49,North,-999,-999.0,-999.0,95,-99.99,,,-99.99,Homeseer,2013-09-08 08:46:00,
2013-09-08 04:51:00,60.3,59.2,29.48,North,-999,-999.0,-999.0,95,-99.99,,,-99.99,Homeseer,2013-09-08 08:51:00,
2013-09-08 04:56:00,60.3,59.2,29.49,North,-999,-999.0,-999.0,95,-99.99,,,-99.99,Homeseer,2013-09-08 08:56:00,
2013-09-08 05:01:00,60.3,59.0,29.49,North,-999,-999.0,-999.0,94,-99.99,,,-99.99,Homeseer,2013-09-08 09:01:00,
2013-09-08 05:06:00,60.3,59.0,29.49,North,-999,-999.0,-999.0,94,-99.99,,,-99.99,Homeseer,2013-09-08 09:06:00,
2013-09-08 05:11:00,60.4,59.1,29.48,North,-999,-999.0,-999.0,94,-99.99,,,-99.99,Homeseer,2013-09-08 09:11:00,
2013-09-08 05:16:00,60.3,59.0,29.48,North,-999,-999.0,-999.0,94,-99.99,,,-99.99,Homeseer,2013-09-08 09:16:00,
2013-09-08 05:21:00,60.3,59.2,29.47,North,-999,-999.0,-999.0,95,-99.99,,,-99.99,Homeseer,2013-09-08 09:21:00,
2013-09-08 05:26:00,60.3,59.0,29.47,North,-999,-999.0,-999.0,94,-99.99,,,-99.99,Homeseer,2013-09-08 09:26:00,
2013-09-08 05:31:00,60.4,59.3,29.47,North,-999,-999.0,-999.0,95,-99.99,,,-99.99,Homeseer,2013-09-08 09:31:00,
2013-09-08 05:36:00,60.3,59.0,29.47,North,-999,-999.0,-999.0,94,-99.99,,,-99.99,Homeseer,2013-09-08 09:36:00,
2013-09-08 05:41:00,60.3,59.0,29.47,North,-999,-999.0,-999.0,94,-99.99,,,-99.99,Homeseer,2013-09-08 09:41:00,
2013-09-08 05:46:00,60.2,58.9,29.47,North,-999,-999.0,-999.0,94,-99.99,,,-99.99,Homeseer,2013-09-08 09:46:00,
2013-09-08 05:51:00,60.2,58.9,29.47,North,-999,-999.0,-999.0,94,-99.99,,,-99.99,Homeseer,2013-09-08 09:51:00,
2013-09-08 05:56:00,59.9,58.6,29.46,North,-999,-999.0,-999.0,94,-99.99,,,-99.99,Homeseer,2013-09-08 09:56:00,
2013-09-08 06:01:00,59.9,58.6,29.47,North,-999,-999.0,-999.0,94,-99.99,,,-99.99,Homeseer,2013-09-08 10:01:00,
2013-09-08 06:06:00,59.8,58.5,29.47,North,-999,-999.0,-999.0,94,-99.99,,,-99.99,Homeseer,2013-09-08 10:06:00,
2013-09-08 06:11:00,59.7,58.4,29.47,North,-999,-999.0,-999.0,94,-99.99,,,-99.99,Homeseer,2013-09-08 10:11:00,
2013-09-08 06:16:00,59.7,58.4,29.47,North,-999,-999.0,-999.0,94,-99.99,,,-99.99,Homeseer,2013-09-08 10:16:00,
2013-09-08 06:21:00,59.7,58.4,29.47,North,-999,-999.0,-999.0,94,-99.99,,,-99.99,Homeseer,2013-09-08 10:21:00,
2013-09-08 06:26:00,59.7,58.6,29.47,North,-999,-999.0,-999.0,95,-99.99,,,-99.99,Homeseer,2013-09-08 10:26:00,
2013-09-08 06:31:00,59.8,58.5,29.47,North,-999,-999.0,-999.0,94,-99.99,,,-99.99,Homeseer,2013-09-08 10:31:00,
2013-09-08 06:36:00,59.9,58.6,29.47,North,-999,-999.0,-999.0,94,-99.99,,,-99.99,Homeseer,2013-09-08 10:36:00,
2013-09-08 06:41:00,59.9,58.6,29.47,North,-999,-999.0,-999.0,94,-99.99,,,-99.99,Homeseer,2013-09-08 10:41:00,
2013-09-08 06:46:00,59.9,58.6,29.47,North,-999,-999.0,-999.0,94,-99.99,,,-99.99,Homeseer,2013-09-08 10:46:00,
2013-09-08 06:51:00,59.9,58.6,29.46,North,-999,-999.0,-999.0,94,-99.99,,,-99.99,Homeseer,2013-09-08 10:51:00,
2013-09-08 06:56:00,59.9,58.4,29.47,North,-999,-999.0,-999.0,93,-99.99,,,-99.99,Homeseer,2013-09-08 10:56:00,
2013-09-08 07:01:00,59.9,58.4,29.47,North,-999,-999.0,-999.0,93,-99.99,,,-99.99,Homeseer,2013-09-08 11:01:00,
2013-09-08 07:06:00,59.9,58.6,29.48,North,-999,-999.0,-999.0,94,-99.99,,,-99.99,Homeseer,2013-09-08 11:06:00,
2013-09-08 07:11:00,60.0,58.5,29.48,North,-999,-999.0,-999.0,93,-99.99,,,-99.99,Homeseer,2013-09-08 11:11:00,
2013-09-08 07:16:00,60.2,58.9,29.48,North,-999,-999.0,-999.0,94,-99.99,,,-99.99,Homeseer,2013-09-08 11:16:00,
2013-09-08 07:21:00,60.4,59.1,29.47,North,-999,-999.0,-999.0,94,-99.99,,,-99.99,Homeseer,2013-09-08 11:21:00,
2013-09-08 07:26:00,60.5,59.2,29.47,North,-999,-999.0,-999.0,94,-99.99,,,-99.99,Homeseer,2013-09-08 11:26:00,
2013-09-08 07:31:00,60.6,59.3,29.48,North,-999,-999.0,-999.0,94,-99.99,,,-99.99,Homeseer,2013-09-08 11:31:00,
2013-09-08 07:36:00,60.8,59.2,29.47,North,-999,-999.0,-999.0,93,-99.99,,,-99.99,Homeseer,2013-09-08 11:36:00,
2013-09-08 07:41:00,61.2,59.9,29.47,North,-999,-999.0,-999.0,94,-99.99,,,-99.99,Homeseer,2013-09-08 11:41:00,
2013-09-08 07:46:00,61.3,60.0,29.46,North,-999,-999.0,-999.0,94,-99.99,,,-99.99,Homeseer,2013-09-08 11:46:00,
2013-09-08 07:51:00,61.5,60.2,29.47,North,-999,-999.0,-999.0,94,-99.99,,,-99.99,Homeseer,2013-09-08 11:51:00,
2013-09-08 07:56:00,61.6,60.3,29.46,North,-999,-999.0,-999.0,94,-99.99,,,-99.99,Homeseer,2013-09-08 11:56:00,
2013-09-08 08:01:00,61.8,60.2,29.46,North,-999,-999.0,-999.0,93,-99.99,,,-99.99,Homeseer,2013-09-08 12:01:00,
2013-09-08 08:06:00,62.0,60.4,29.46,North,-999,-999.0,-999.0,93,-99.99,,,-99.99,Homeseer,2013-09-08 12:06:00,
2013-09-08 08:11:00,62.0,60.2,29.47,North,-999,-999.0,-999.0,92,-99.99,,,-99.99,Homeseer,2013-09-08 12:11:00,
2013-09-08 08:16:00,62.2,60.4,29.46,North,-999,-999.0,-999.0,92,-99.99,,,-99.99,Homeseer,2013-09-08 12:16:00,
2013-09-08 08:21:00,62.3,60.5,29.46,North,-999,-999.0,-999.0,92,-99.99,,,-99.99,Homeseer,2013-09-08 12:21:00,
2013-09-08 08:26:00,62.5,60.7,29.46,North,-999,-999.0,-999.0,92,-99.99,,,-99.99,Homeseer,2013-09-08 12:26:00,
2013-09-08 08:31:00,62.9,60.9,29.46,North,-999,-999.0,-999.0,91,-99.99,,,-99.99,Homeseer,2013-09-08 12:31:00,
2013-09-08 08:36:00,63.1,61.0,29.46,North,-999,-999.0,-999.0,91,-99.99,,,-99.99,Homeseer,2013-09-08 12:36:00,
2013-09-08 08:41:00,63.3,60.8,29.47,North,-999,-999.0,-999.0,89,-99.99,,,-99.99,Homeseer,2013-09-08 12:41:00,
2013-09-08 08:46:00,63.6,61.1,29.46,North,-999,-999.0,-999.0,89,-99.99,,,-99.99,Homeseer,2013-09-08 12:46:00,
2013-09-08 08:51:00,64.0,61.5,29.46,North,-999,-999.0,-999.0,89,-99.99,,,-99.99,Homeseer,2013-09-08 12:51:00,
2013-09-08 08:56:00,64.3,61.5,29.47,North,-999,-999.0,-999.0,88,-99.99,,,-99.99,Homeseer,2013-09-08 12:56:00,
2013-09-08 09:01:00,64.8,61.5,29.46,North,-999,-999.0,-999.0,86,-99.99,,,-99.99,Homeseer,2013-09-08 13:01:00,
2013-09-08 09:06:00,65.4,61.6,29.45,North,-999,-999.0,-999.0,84,-99.99,,,-99.99,Homeseer,2013-09-08 13:06:00,
2013-09-08 09:11:00,66.0,61.6,29.46,North,-999,-999.0,-999.0,82,-99.99,,,-99.99,Homeseer,2013-09-08 13:11:00,
2013-09-08 09:16:00,66.5,62.4,29.46,North,-999,-999.0,-999.0,83,-99.99,,,-99.99,Homeseer,2013-09-08 13:16:00,
2013-09-08 09:21:00,66.4,61.2,29.46,North,-999,-999.0,-999.0,79,-99.99,,,-99.99,Homeseer,2013-09-08 13:21:00,
2013-09-08 09:26:00,66.7,61.0,29.45,North,-999,-999.0,-999.0,77,-99.99,,,-99.99,Homeseer,2013-09-08 13:26:00,
2013-09-08 09:31:00,67.1,62.2,29.45,North,-999,-999.0,-999.0,80,-99.99,,,-99.99,Homeseer,2013-09-08 13:31:00,
2013-09-08 09:36:00,67.4,62.5,29.46,North,-999,-999.0,-999.0,80,-99.99,,,-99.99,Homeseer,2013-09-08 13:36:00,
2013-09-08 09:41:00,68.2,63.0,29.45,North,-999,-999.0,-999.0,79,-99.99,,,-99.99,Homeseer,2013-09-08 13:41:00,
2013-09-08 09:46:00,68.9,63.1,29.46,North,-999,-999.0,-999.0,77,-99.99,,,-99.99,Homeseer,2013-09-08 13:46:00,
2013-09-08 09:51:00,68.7,62.6,29.46,North,-999,-999.0,-999.0,76,-99.99,,,-99.99,Homeseer,2013-09-08 13:51:00,
2013-09-08 09:56:00,68.5,62.4,29.46,North,-999,-999.0,-999.0,76,-99.99,,,-99.99,Homeseer,2013-09-08 13:56:00,
2013-09-08 10:01:00,68.5,62.4,29.46,North,-999,-999.0,-999.0,76,-99.99,,,-99.99,Homeseer,2013-09-08 14:01:00,
2013-09-08 10:06:00,68.7,62.6,29.46,North,-999,-999.0,-999.0,76,-99.99,,,-99.99,Homeseer,2013-09-08 14:06:00,
2013-09-08 10:11:00,68.9,62.8,29.47,North,-999,-999.0,-999.0,76,-99.99,,,-99.99,Homeseer,2013-09-08 14:11:00,
2013-09-08 10:16:00,69.6,63.2,29.46,North,-999,-999.0,-999.0,75,-99.99,,,-99.99,Homeseer,2013-09-08 14:16:00,
2013-09-08 10:21:00,69.8,62.8,29.47,North,-999,-999.0,-999.0,73,-99.99,,,-99.99,Homeseer,2013-09-08 14:21:00,
2013-09-08 10:26:00,69.4,62.4,29.47,North,-999,-999.0,-999.0,73,-99.99,,,-99.99,Homeseer,2013-09-08 14:26:00,
2013-09-08 10:31:00,69.2,62.5,29.47,North,-999,-999.0,-999.0,74,-99.99,,,-99.99,Homeseer,2013-09-08 14:31:00,
2013-09-08 10:36:00,68.9,62.5,29.47,North,-999,-999.0,-999.0,75,-99.99,,,-99.99,Homeseer,2013-09-08 14:36:00,
2013-09-08 10:41:00,68.8,62.4,29.47,North,-999,-999.0,-999.0,75,-99.99,,,-99.99,Homeseer,2013-09-08 14:41:00,
2013-09-08 10:46:00,68.7,62.6,29.47,North,-999,-999.0,-999.0,76,-99.99,,,-99.99,Homeseer,2013-09-08 14:46:00,
2013-09-08 10:51:00,68.9,61.9,29.47,North,-999,-999.0,-999.0,73,-99.99,,,-99.99,Homeseer,2013-09-08 14:51:00,
2013-09-08 10:56:00,69.6,62.9,29.47,North,-999,-999.0,-999.0,74,-99.99,,,-99.99,Homeseer,2013-09-08 14:56:00,
2013-09-08 11:01:00,70.4,63.0,29.48,North,-999,-999.0,-999.0,72,-99.99,,,-99.99,Homeseer,2013-09-08 15:01:00,
2013-09-08 11:06:00,71.2,63.5,29.47,North,-999,-999.0,-999.0,71,-99.99,,,-99.99,Homeseer,2013-09-08 15:06:00,
2013-09-08 11:11:00,71.5,63.2,29.47,North,-999,-999.0,-999.0,69,-99.99,,,-99.99,Homeseer,2013-09-08 15:11:00,
2013-09-08 11:16:00,71.2,63.2,29.48,North,-999,-999.0,-999.0,70,-99.99,,,-99.99,Homeseer,2013-09-08 15:16:00,
2013-09-08 11:21:00,71.0,62.7,29.48,North,-999,-999.0,-999.0,69,-99.99,,,-99.99,Homeseer,2013-09-08 15:21:00,
2013-09-08 11:26:00,70.7,63.6,29.47,North,-999,-999.0,-999.0,73,-99.99,,,-99.99,Homeseer,2013-09-08 15:26:00,
2013-09-08 11:31:00,70.7,63.0,29.47,North,-999,-999.0,-999.0,71,-99.99,,,-99.99,Homeseer,2013-09-08 15:31:00,
2013-09-08 11:36:00,70.4,62.1,29.48,North,-999,-999.0,-999.0,69,-99.99,,,-99.99,Homeseer,2013-09-08 15:36:00,
2013-09-08 11:41:00,70.4,62.4,29.49,North,-999,-999.0,-999.0,70,-99.99,,,-99.99,Homeseer,2013-09-08 15:41:00,
2013-09-08 11:46:00,70.1,62.4,29.48,North,-999,-999.0,-999.0,71,-99.99,,,-99.99,Homeseer,2013-09-08 15:46:00,
2013-09-08 11:51:00,70.6,62.3,29.48,North,-999,-999.0,-999.0,69,-99.99,,,-99.99,Homeseer,2013-09-08 15:51:00,
2013-09-08 11:56:00,71.0,62.7,29.50,North,-999,-999.0,-999.0,69,-99.99,,,-99.99,Homeseer,2013-09-08 15:56:00,
2013-09-08 12:01:00,70.5,63.1,29.49,North,-999,-999.0,-999.0,72,-99.99,,,-99.99,Homeseer,2013-09-08 16:01:00,
2013-09-08 12:06:00,71.3,62.0,29.50,North,-999,-999.0,-999.0,66,-99.99,,,-99.99,Homeseer,2013-09-08 16:06:00,
2013-09-08 12:11:00,71.6,61.6,29.50,North,-999,-999.0,-999.0,64,-99.99,,,-99.99,Homeseer,2013-09-08 16:11:00,
2013-09-08 12:16:00,72.4,62.7,29.51,North,-999,-999.0,-999.0,65,-99.99,,,-99.99,Homeseer,2013-09-08 16:16:00,
2013-09-08 12:21:00,72.3,61.9,29.51,North,-999,-999.0,-999.0,63,-99.99,,,-99.99,Homeseer,2013-09-08 16:21:00,
2013-09-08 12:26:00,72.5,61.1,29.51,North,-999,-999.0,-999.0,60,-99.99,,,-99.99,Homeseer,2013-09-08 16:26:00,
2013-09-08 12:31:00,72.3,60.5,29.52,North,-999,-999.0,-999.0,59,-99.99,,,-99.99,Homeseer,2013-09-08 16:31:00,
2013-09-08 12:36:00,72.5,61.4,29.52,North,-999,-999.0,-999.0,61,-99.99,,,-99.99,Homeseer,2013-09-08 16:36:00,
2013-09-08 12:41:00,72.3,59.8,29.52,North,-999,-999.0,-999.0,57,-99.99,,,-99.99,Homeseer,2013-09-08 16:41:00,
2013-09-08 12:46:00,72.3,60.5,29.52,North,-999,-999.0,-999.0,59,-99.99,,,-99.99,Homeseer,2013-09-08 16:46:00,
2013-09-08 12:51:00,72.2,59.7,29.53,North,-999,-999.0,-999.0,57,-99.99,,,-99.99,Homeseer,2013-09-08 16:51:00,
2013-09-08 12:56:00,71.8,60.4,29.54,North,-999,-999.0,-999.0,60,-99.99,,,-99.99,Homeseer,2013-09-08 16:56:00,
2013-09-08 13:01:00,71.3,59.2,29.55,North,-999,-999.0,-999.0,58,-99.99,,,-99.99,Homeseer,2013-09-08 17:01:00,
2013-09-08 13:06:00,70.7,58.3,29.55,North,-999,-999.0,-999.0,57,-99.99,,,-99.99,Homeseer,2013-09-08 17:06:00,
2013-09-08 13:11:00,70.3,59.0,29.53,North,-999,-999.0,-999.0,60,-99.99,,,-99.99,Homeseer,2013-09-08 17:11:00,
2013-09-08 13:16:00,70.4,57.3,29.54,North,-999,-999.0,-999.0,55,-99.99,,,-99.99,Homeseer,2013-09-08 17:16:00,
2013-09-08 13:21:00,70.4,56.9,29.54,North,-999,-999.0,-999.0,54,-99.99,,,-99.99,Homeseer,2013-09-08 17:21:00,
2013-09-08 13:26:00,69.7,55.8,29.54,North,-999,-999.0,-999.0,53,-99.99,,,-99.99,Homeseer,2013-09-08 17:26:00,
2013-09-08 13:31:00,69.8,55.5,29.55,North,-999,-999.0,-999.0,52,-99.99,,,-99.99,Homeseer,2013-09-08 17:31:00,
2013-09-08 13:36:00,70.0,55.3,29.55,North,-999,-999.0,-999.0,51,-99.99,,,-99.99,Homeseer,2013-09-08 17:36:00,
2013-09-08 13:41:00,70.0,55.7,29.55,North,-999,-999.0,-999.0,52,-99.99,,,-99.99,Homeseer,2013-09-08 17:41:00,
2013-09-08 13:46:00,69.2,54.6,29.56,North,-999,-999.0,-999.0,51,-99.99,,,-99.99,Homeseer,2013-09-08 17:46:00,
2013-09-08 13:51:00,68.6,55.2,29.56,North,-999,-999.0,-999.0,54,-99.99,,,-99.99,Homeseer,2013-09-08 17:51:00,
2013-09-08 13:56:00,68.4,54.3,29.56,North,-999,-999.0,-999.0,52,-99.99,,,-99.99,Homeseer,2013-09-08 17:56:00,
2013-09-08 14:01:00,68.7,52.9,29.57,North,-999,-999.0,-999.0,48,-99.99,,,-99.99,Homeseer,2013-09-08 18:01:00,
2013-09-08 14:06:00,69.0,53.6,29.57,North,-999,-999.0,-999.0,49,-99.99,,,-99.99,Homeseer,2013-09-08 18:06:00,
2013-09-08 14:11:00,69.2,53.3,29.57,North,-999,-999.0,-999.0,48,-99.99,,,-99.99,Homeseer,2013-09-08 18:11:00,
2013-09-08 14:16:00,69.2,53.8,29.57,North,-999,-999.0,-999.0,49,-99.99,,,-99.99,Homeseer,2013-09-08 18:16:00,
2013-09-08 14:21:00,69.5,53.2,29.57,North,-999,-999.0,-999.0,47,-99.99,,,-99.99,Homeseer,2013-09-08 18:21:00,
2013-09-08 14:26:00,69.5,53.2,29.57,North,-999,-999.0,-999.0,47,-99.99,,,-99.99,Homeseer,2013-09-08 18:26:00,
2013-09-08 14:31:00,70.1,52.8,29.57,North,-999,-999.0,-999.0,45,-99.99,,,-99.99,Homeseer,2013-09-08 18:31:00,
2013-09-08 14:36:00,70.3,53.5,29.57,North,-999,-999.0,-999.0,46,-99.99,,,-99.99,Homeseer,2013-09-08 18:36:00,
2013-09-08 14:41:00,70.8,52.5,29.58,North,-999,-999.0,-999.0,43,-99.99,,,-99.99,Homeseer,2013-09-08 18:41:00,
2013-09-08 14:46:00,70.8,53.4,29.58,North,-999,-999.0,-999.0,45,-99.99,,,-99.99,Homeseer,2013-09-08 18:46:00,
2013-09-08 14:51:00,71.0,52.7,29.59,North,-999,-999.0,-999.0,43,-99.99,,,-99.99,Homeseer,2013-09-08 18:51:00,
2013-09-08 14:56:00,71.4,52.6,29.59,North,-999,-999.0,-999.0,42,-99.99,,,-99.99,Homeseer,2013-09-08 18:56:00,
2013-09-08 15:01:00,71.2,51.9,29.59,North,-999,-999.0,-999.0,41,-99.99,,,-99.99,Homeseer,2013-09-08 19:01:00,
2013-09-08 15:06:00,70.5,51.8,29.59,North,-999,-999.0,-999.0,42,-99.99,,,-99.99,Homeseer,2013-09-08 19:06:00,
2013-09-08 15:11:00,70.3,51.1,29.59,North,-999,-999.0,-999.0,41,-99.99,,,-99.99,Homeseer,2013-09-08 19:11:00,
2013-09-08 15:17:00,70.3,51.6,29.60,North,-999,-999.0,-999.0,42,-99.99,,,-99.99,Homeseer,2013-09-08 19:17:00,
2013-09-08 15:22:00,69.8,50.2,29.61,North,-999,-999.0,-999.0,40,-99.99,,,-99.99,Homeseer,2013-09-08 19:22:00,
2013-09-08 15:27:00,69.3,50.2,29.61,North,-999,-999.0,-999.0,41,-99.99,,,-99.99,Homeseer,2013-09-08 19:27:00,
2013-09-08 15:32:00,68.9,51.3,29.61,North,-999,-999.0,-999.0,44,-99.99,,,-99.99,Homeseer,2013-09-08 19:32:00,
2013-09-08 15:37:00,68.8,51.2,29.61,North,-999,-999.0,-999.0,44,-99.99,,,-99.99,Homeseer,2013-09-08 19:37:00,
2013-09-08 15:42:00,68.2,50.2,29.61,North,-999,-999.0,-999.0,43,-99.99,,,-99.99,Homeseer,2013-09-08 19:42:00,
2013-09-08 15:47:00,68.2,51.6,29.61,North,-999,-999.0,-999.0,46,-99.99,,,-99.99,Homeseer,2013-09-08 19:47:00,
2013-09-08 15:52:00,67.5,50.9,29.61,North,-999,-999.0,-999.0,46,-99.99,,,-99.99,Homeseer,2013-09-08 19:52:00,
2013-09-08 15:57:00,67.4,51.3,29.62,North,-999,-999.0,-999.0,47,-99.99,,,-99.99,Homeseer,2013-09-08 19:57:00,
2013-09-08 16:02:00,67.2,50.2,29.63,North,-999,-999.0,-999.0,45,-99.99,,,-99.99,Homeseer,2013-09-08 20:02:00,
2013-09-08 16:07:00,66.9,49.1,29.63,North,-999,-999.0,-999.0,43,-99.99,,,-99.99,Homeseer,2013-09-08 20:07:00,
2013-09-08 16:12:00,66.8,50.3,29.65,North,-999,-999.0,-999.0,46,-99.99,,,-99.99,Homeseer,2013-09-08 20:12:00,
2013-09-08 16:17:00,66.4,49.1,29.65,North,-999,-999.0,-999.0,44,-99.99,,,-99.99,Homeseer,2013-09-08 20:17:00,
2013-09-08 16:22:00,66.0,48.3,29.65,North,-999,-999.0,-999.0,43,-99.99,,,-99.99,Homeseer,2013-09-08 20:22:00,
2013-09-08 16:27:00,65.7,48.4,29.65,North,-999,-999.0,-999.0,44,-99.99,,,-99.99,Homeseer,2013-09-08 20:27:00,
2013-09-08 16:32:00,65.3,48.5,29.65,North,-999,-999.0,-999.0,45,-99.99,,,-99.99,Homeseer,2013-09-08 20:32:00,
2013-09-08 16:37:00,64.9,46.8,29.65,North,-999,-999.0,-999.0,42,-99.99,,,-99.99,Homeseer,2013-09-08 20:37:00,
2013-09-08 16:42:00,65.0,47.8,29.66,North,-999,-999.0,-999.0,44,-99.99,,,-99.99,Homeseer,2013-09-08 20:42:00,
2013-09-08 16:47:00,64.9,48.6,29.67,North,-999,-999.0,-999.0,46,-99.99,,,-99.99,Homeseer,2013-09-08 20:47:00,
2013-09-08 16:52:00,64.9,48.2,29.67,North,-999,-999.0,-999.0,45,-99.99,,,-99.99,Homeseer,2013-09-08 20:52:00,
2013-09-08 16:57:00,64.2,47.1,29.68,North,-999,-999.0,-999.0,44,-99.99,,,-99.99,Homeseer,2013-09-08 20:57:00,
2013-09-08 17:02:00,64.2,47.5,29.68,North,-999,-999.0,-999.0,45,-99.99,,,-99.99,Homeseer,2013-09-08 21:02:00,
2013-09-08 17:07:00,63.9,47.3,29.68,North,-999,-999.0,-999.0,45,-99.99,,,-99.99,Homeseer,2013-09-08 21:07:00,
2013-09-08 17:12:00,63.8,48.0,29.68,North,-999,-999.0,-999.0,47,-99.99,,,-99.99,Homeseer,2013-09-08 21:12:00,
2013-09-08 17:17:00,63.5,46.9,29.69,North,-999,-999.0,-999.0,45,-99.99,,,-99.99,Homeseer,2013-09-08 21:17:00,
2013-09-08 17:22:00,63.4,46.4,29.69,North,-999,-999.0,-999.0,44,-99.99,,,-99.99,Homeseer,2013-09-08 21:22:00,
2013-09-08 17:27:00,63.4,47.7,29.69,North,-999,-999.0,-999.0,47,-99.99,,,-99.99,Homeseer,2013-09-08 21:27:00,
2013-09-08 17:32:00,63.1,47.0,29.70,North,-999,-999.0,-999.0,46,-99.99,,,-99.99,Homeseer,2013-09-08 21:32:00,
2013-09-08 17:37:00,62.6,46.1,29.71,North,-999,-999.0,-999.0,45,-99.99,,,-99.99,Homeseer,2013-09-08 21:37:00,
2013-09-08 17:42:00,62.4,46.8,29.71,North,-999,-999.0,-999.0,47,-99.99,,,-99.99,Homeseer,2013-09-08 21:42:00,
2013-09-08 17:47:00,62.4,45.9,29.71,North,-999,-999.0,-999.0,45,-99.99,,,-99.99,Homeseer,2013-09-08 21:47:00,
2013-09-08 17:52:00,62.4,46.8,29.71,North,-999,-999.0,-999.0,47,-99.99,,,-99.99,Homeseer,2013-09-08 21:52:00,
2013-09-08 17:57:00,62.2,46.2,29.71,North,-999,-999.0,-999.0,46,-99.99,,,-99.99,Homeseer,2013-09-08 21:57:00,
2013-09-08 18:02:00,61.7,46.6,29.72,North,-999,-999.0,-999.0,48,-99.99,,,-99.99,Homeseer,2013-09-08 22:02:00,
2013-09-08 18:07:00,61.7,46.2,29.72,North,-999,-999.0,-999.0,47,-99.99,,,-99.99,Homeseer,2013-09-08 22:07:00,
2013-09-08 18:12:00,61.5,46.0,29.73,North,-999,-999.0,-999.0,47,-99.99,,,-99.99,Homeseer,2013-09-08 22:12:00,
2013-09-08 18:17:00,61.5,47.2,29.73,North,-999,-999.0,-999.0,50,-99.99,,,-99.99,Homeseer,2013-09-08 22:17:00,
2013-09-08 18:22:00,61.3,47.0,29.73,North,-999,-999.0,-999.0,50,-99.99,,,-99.99,Homeseer,2013-09-08 22:22:00,
2013-09-08 18:27:00,61.3,47.0,29.74,North,-999,-999.0,-999.0,50,-99.99,,,-99.99,Homeseer,2013-09-08 22:27:00,
2013-09-08 18:32:00,61.1,46.0,29.74,North,-999,-999.0,-999.0,48,-99.99,,,-99.99,Homeseer,2013-09-08 22:32:00,
2013-09-08 18:37:00,61.0,45.9,29.74,North,-999,-999.0,-999.0,48,-99.99,,,-99.99,Homeseer,2013-09-08 22:37:00,
2013-09-08 18:42:00,60.8,46.2,29.75,North,-999,-999.0,-999.0,49,-99.99,,,-99.99,Homeseer,2013-09-08 22:42:00,
2013-09-08 18:47:00,60.4,46.6,29.75,North,-999,-999.0,-999.0,51,-99.99,,,-99.99,Homeseer,2013-09-08 22:47:00,
2013-09-08 18:52:00,60.5,46.3,29.75,North,-999,-999.0,-999.0,50,-99.99,,,-99.99,Homeseer,2013-09-08 22:52:00,
2013-09-08 18:57:00,60.2,46.0,29.76,North,-999,-999.0,-999.0,50,-99.99,,,-99.99,Homeseer,2013-09-08 22:57:00,
2013-09-08 19:02:00,60.2,46.0,29.76,North,-999,-999.0,-999.0,50,-99.99,,,-99.99,Homeseer,2013-09-08 23:02:00,
2013-09-08 19:07:00,59.9,46.5,29.77,North,-999,-999.0,-999.0,52,-99.99,,,-99.99,Homeseer,2013-09-08 23:07:00,
2013-09-08 19:12:00,59.6,46.2,29.77,North,-999,-999.0,-999.0,52,-99.99,,,-99.99,Homeseer,2013-09-08 23:12:00,
2013-09-08 19:17:00,59.0,46.1,29.78,North,-999,-999.0,-999.0,53,-99.99,,,-99.99,Homeseer,2013-09-08 23:17:00,
2013-09-08 19:22:00,58.6,46.1,29.79,North,-999,-999.0,-999.0,54,-99.99,,,-99.99,Homeseer,2013-09-08 23:22:00,
2013-09-08 19:27:00,58.2,46.4,29.79,North,-999,-999.0,-999.0,56,-99.99,,,-99.99,Homeseer,2013-09-08 23:27:00,
2013-09-08 19:32:00,57.7,46.3,29.79,North,-999,-999.0,-999.0,57,-99.99,,,-99.99,Homeseer,2013-09-08 23:32:00,
2013-09-08 19:37:00,57.2,46.2,29.79,North,-999,-999.0,-999.0,58,-99.99,,,-99.99,Homeseer,2013-09-08 23:37:00,
2013-09-08 19:42:00,56.8,46.1,29.80,North,-999,-999.0,-999.0,59,-99.99,,,-99.99,Homeseer,2013-09-08 23:42:00,
2013-09-08 19:47:00,56.7,46.7,29.81,North,-999,-999.0,-999.0,61,-99.99,,,-99.99,Homeseer,2013-09-08 23:47:00,
2013-09-08 19:52:00,56.6,46.3,29.81,North,-999,-999.0,-999.0,60,-99.99,,,-99.99,Homeseer,2013-09-08 23:52:00,
2013-09-08 19:57:00,56.4,46.1,29.82,North,-999,-999.0,-999.0,60,-99.99,,,-99.99,Homeseer,2013-09-08 23:57:00,
2013-09-08 20:02:00,56.3,46.0,29.83,North,-999,-999.0,-999.0,60,-99.99,,,-99.99,Homeseer,2013-09-09 00:02:00,
2013-09-08 20:07:00,56.3,45.7,29.83,North,-999,-999.0,-999.0,59,-99.99,,,-99.99,Homeseer,2013-09-09 00:07:00,
2013-09-08 20:12:00,56.3,46.3,29.83,North,-999,-999.0,-999.0,61,-99.99,,,-99.99,Homeseer,2013-09-09 00:12:00,
2013-09-08 20:17:00,56.2,46.8,29.84,North,-999,-999.0,-999.0,63,-99.99,,,-99.99,Homeseer,2013-09-09 00:17:00,
2013-09-08 20:22:00,56.1,46.7,29.85,North,-999,-999.0,-999.0,63,-99.99,,,-99.99,Homeseer,2013-09-09 00:22:00,
2013-09-08 20:27:00,55.7,47.3,29.85,North,-999,-999.0,-999.0,66,-99.99,,,-99.99,Homeseer,2013-09-09 00:27:00,
2013-09-08 20:32:00,55.3,46.6,29.85,North,-999,-999.0,-999.0,65,-99.99,,,-99.99,Homeseer,2013-09-09 00:32:00,
2013-09-08 20:37:00,55.0,45.7,29.87,North,-999,-999.0,-999.0,63,-99.99,,,-99.99,Homeseer,2013-09-09 00:37:00,
2013-09-08 20:42:00,54.9,45.9,29.87,North,-999,-999.0,-999.0,64,-99.99,,,-99.99,Homeseer,2013-09-09 00:42:00,
2013-09-08 20:47:00,54.8,45.5,29.87,North,-999,-999.0,-999.0,63,-99.99,,,-99.99,Homeseer,2013-09-09 00:47:00,
2013-09-08 20:52:00,54.8,45.5,29.88,North,-999,-999.0,-999.0,63,-99.99,,,-99.99,Homeseer,2013-09-09 00:52:00,
2013-09-08 20:57:00,54.6,45.3,29.87,North,-999,-999.0,-999.0,63,-99.99,,,-99.99,Homeseer,2013-09-09 00:57:00,
2013-09-08 21:02:00,54.6,45.3,29.88,North,-999,-999.0,-999.0,63,-99.99,,,-99.99,Homeseer,2013-09-09 01:02:00,
2013-09-08 21:07:00,54.6,45.3,29.89,North,-999,-999.0,-999.0,63,-99.99,,,-99.99,Homeseer,2013-09-09 01:07:00,
2013-09-08 21:12:00,54.5,45.2,29.89,North,-999,-999.0,-999.0,63,-99.99,,,-99.99,Homeseer,2013-09-09 01:12:00,
2013-09-08 21:17:00,54.4,44.8,29.90,North,-999,-999.0,-999.0,62,-99.99,,,-99.99,Homeseer,2013-09-09 01:17:00,
2013-09-08 21:22:00,54.4,44.5,29.89,North,-999,-999.0,-999.0,61,-99.99,,,-99.99,Homeseer,2013-09-09 01:22:00,
2013-09-08 21:27:00,54.2,44.3,29.90,North,-999,-999.0,-999.0,61,-99.99,,,-99.99,Homeseer,2013-09-09 01:27:00,
2013-09-08 21:32:00,54.0,44.8,29.91,North,-999,-999.0,-999.0,63,-99.99,,,-99.99,Homeseer,2013-09-09 01:32:00,
2013-09-08 21:37:00,53.6,44.7,29.91,North,-999,-999.0,-999.0,64,-99.99,,,-99.99,Homeseer,2013-09-09 01:37:00,
2013-09-08 21:42:00,53.3,44.7,29.91,North,-999,-999.0,-999.0,65,-99.99,,,-99.99,Homeseer,2013-09-09 01:42:00,
2013-09-08 21:47:00,52.8,44.8,29.91,North,-999,-999.0,-999.0,67,-99.99,,,-99.99,Homeseer,2013-09-09 01:47:00,
2013-09-08 21:52:00,52.4,45.6,29.92,North,-999,-999.0,-999.0,71,-99.99,,,-99.99,Homeseer,2013-09-09 01:52:00,
2013-09-08 21:57:00,51.8,44.5,29.92,North,-999,-999.0,-999.0,69,-99.99,,,-99.99,Homeseer,2013-09-09 01:57:00,
2013-09-08 22:02:00,51.5,44.2,29.93,North,-999,-999.0,-999.0,69,-99.99,,,-99.99,Homeseer,2013-09-09 02:02:00,
2013-09-08 22:07:00,51.2,44.2,29.92,North,-999,-999.0,-999.0,70,-99.99,,,-99.99,Homeseer,2013-09-09 02:07:00,
2013-09-08 22:12:00,50.9,44.1,29.92,North,-999,-999.0,-999.0,71,-99.99,,,-99.99,Homeseer,2013-09-09 02:12:00,
2013-09-08 22:17:00,50.5,44.3,29.93,North,-999,-999.0,-999.0,73,-99.99,,,-99.99,Homeseer,2013-09-09 02:17:00,
2013-09-08 22:22:00,50.5,44.3,29.93,North,-999,-999.0,-999.0,73,-99.99,,,-99.99,Homeseer,2013-09-09 02:22:00,
2013-09-08 22:27:00,50.3,44.4,29.95,North,-999,-999.0,-999.0,74,-99.99,,,-99.99,Homeseer,2013-09-09 02:27:00,
2013-09-08 22:33:00,50.0,44.1,29.94,North,-999,-999.0,-999.0,74,-99.99,,,-99.99,Homeseer,2013-09-09 02:33:00,
2013-09-08 22:38:00,50.0,44.6,29.95,North,-999,-999.0,-999.0,76,-99.99,,,-99.99,Homeseer,2013-09-09 02:38:00,
2013-09-08 22:43:00,49.6,44.2,29.95,North,-999,-999.0,-999.0,76,-99.99,,,-99.99,Homeseer,2013-09-09 02:43:00,
2013-09-08 22:48:00,49.2,44.1,29.96,North,-999,-999.0,-999.0,77,-99.99,,,-99.99,Homeseer,2013-09-09 02:48:00,
2013-09-08 22:53:00,48.7,43.8,29.95,North,-999,-999.0,-999.0,78,-99.99,,,-99.99,Homeseer,2013-09-09 02:53:00,
2013-09-08 22:58:00,48.7,43.8,29.95,North,-999,-999.0,-999.0,78,-99.99,,,-99.99,Homeseer,2013-09-09 02:58:00,
2013-09-08 23:03:00,48.5,43.9,29.95,North,-999,-999.0,-999.0,79,-99.99,,,-99.99,Homeseer,2013-09-09 03:03:00,
2013-09-08 23:08:00,48.5,43.6,29.95,North,-999,-999.0,-999.0,78,-99.99,,,-99.99,Homeseer,2013-09-09 03:08:00,
2013-09-08 23:13:00,48.2,43.6,29.96,North,-999,-999.0,-999.0,79,-99.99,,,-99.99,Homeseer,2013-09-09 03:13:00,
2013-09-08 23:18:00,48.0,43.4,29.96,North,-999,-999.0,-999.0,79,-99.99,,,-99.99,Homeseer,2013-09-09 03:18:00,
2013-09-08 23:23:00,47.7,43.4,29.96,North,-999,-999.0,-999.0,80,-99.99,,,-99.99,Homeseer,2013-09-09 03:23:00,
2013-09-08 23:28:00,47.6,43.3,29.96,North,-999,-999.0,-999.0,80,-99.99,,,-99.99,Homeseer,2013-09-09 03:28:00,
2013-09-08 23:33:00,47.3,43.0,29.97,North,-999,-999.0,-999.0,80,-99.99,,,-99.99,Homeseer,2013-09-09 03:33:00,
2013-09-08 23:38:00,47.1,42.8,29.96,North,-999,-999.0,-999.0,80,-99.99,,,-99.99,Homeseer,2013-09-09 03:38:00,
2013-09-08 23:43:00,46.8,42.7,29.97,North,-999,-999.0,-999.0,81,-99.99,,,-99.99,Homeseer,2013-09-09 03:43:00,
2013-09-08 23:48:00,46.7,42.4,29.97,North,-999,-999.0,-999.0,80,-99.99,,,-99.99,Homeseer,2013-09-09 03:48:00,
2013-09-08 23:53:00,46.2,42.6,29.98,North,-999,-999.0,-999.0,83,-99.99,,,-99.99,Homeseer,2013-09-09 03:53:00,
2013-09-08 23:58:00,46.0,42.4,29.98,North,-999,-999.0,-999.0,83,-99.99,,,-99.99,Homeseer,2013-09-09 03:58:00,